Toledo Metcalf, OH

8:51 AM EDT on May 26, 2018 (GMT -0400)
Metcalf

Weather History for KTDZ - October, 2013

Change the Weather History Date:

Friday, October 18, 2013

  Actual Average (KTOL) Record (KTOL)
Temperature  
Mean Temperature 51 °F -  
Max Temperature 64 °F 58 °F 83 °F (1950)
Min Temperature 39 °F 38 °F 17 °F (1976)
Degree Days  
Heating Degree Days 14    
Growing Degree Days 1 (Base 50)    
Moisture  
Dew Point 41 °F    
Average Humidity 69    
Maximum Humidity 89    
Minimum Humidity 41    
Precipitation  
Precipitation 0.00 in - - ()
Sea Level Pressure  
Sea Level Pressure 29.92 in    
Wind  
Wind Speed 9 mph (SW)    
Max Wind Speed 18 mph    
Max Gust Speed 26 mph    
Visibility 10 miles    
Events      
Averages and records for this station are not official NWS values.
T = Trace of Precipitation, MM = Missing Value Source: NWS Daily Summary

Daily Weather History Graph

Daily Weather History Graph

Search for Another Location

Airport or City:

Astronomy

Oct. 18, 2013 Rise Set
Actual Time 7:49 AM EDT 6:47 PM EDT
Civil Twilight 7:21 AM EDT 7:15 PM EDT
Nautical Twilight 6:49 AM EDT 7:47 PM EDT
Astronomical Twilight 6:17 AM EDT 8:20 PM EDT
Moon 6:36 PM EDT (10/18) 7:24 AM EDT (10/18)
Length of Visible Light 11h 54m
Length of Day
10h 58m
Full, 100% of the Moon is Illuminated
Oct 18
Full
Oct 18
Full
Oct 26
Last Quarter
Nov 3
New
Nov 10
First Quarter

Hourly Weather History & Observations

Time (EDT) Temp. Windchill Dew Point Humidity Pressure Visibility Wind Dir Wind Speed Gust Speed Precip Events Conditions
12:53 AM 48.0 °F - 43.0 °F 83% 29.90 in 10.0 mi SW 8.1 mph - N/A   Scattered Clouds
1:53 AM 48.9 °F - 43.0 °F 80% 29.91 in 10.0 mi SW 8.1 mph - N/A   Overcast
2:53 AM 46.0 °F 41.9 °F 41.0 °F 83% 29.92 in 10.0 mi SW 8.1 mph - N/A   Clear
3:53 AM 44.1 °F 39.5 °F 39.9 °F 85% 29.92 in 10.0 mi SW 8.1 mph - N/A   Clear
4:53 AM 42.1 °F 38.4 °F 39.0 °F 89% 29.93 in 10.0 mi SW 5.8 mph - N/A   Clear
5:53 AM 41.0 °F 38.0 °F 37.9 °F 89% 29.93 in 10.0 mi SW 4.6 mph - N/A   Clear
6:53 AM 39.0 °F 35.7 °F 36.0 °F 89% 29.93 in 8.0 mi South 4.6 mph - N/A   Clear
7:53 AM 41.0 °F 37.1 °F 37.0 °F 86% 29.94 in 7.0 mi SSW 5.8 mph - N/A   Clear
8:53 AM 43.0 °F 38.8 °F 39.0 °F 86% 29.95 in 7.0 mi SSW 6.9 mph - N/A   Clear
9:53 AM 48.9 °F - 42.1 °F 77% 29.96 in 10.0 mi SW 11.5 mph 17.3 mph N/A   Clear
10:53 AM 52.0 °F - 43.0 °F 71% 29.96 in 10.0 mi SW 11.5 mph - N/A   Clear
11:53 AM 57.0 °F - 44.1 °F 62% 29.95 in 10.0 mi SW 12.7 mph - N/A   Clear
12:53 PM 60.1 °F - 45.0 °F 57% 29.94 in 10.0 mi SW 11.5 mph - N/A   Partly Cloudy
1:53 PM 63.0 °F - 42.1 °F 46% 29.91 in 10.0 mi SW 16.1 mph - N/A   Clear
2:53 PM 62.1 °F - 45.0 °F 53% 29.89 in 10.0 mi WSW 13.8 mph 26.5 mph N/A   Partly Cloudy
3:53 PM 63.0 °F - 43.0 °F 48% 29.88 in 10.0 mi WSW 15.0 mph - N/A   Scattered Clouds
4:53 PM 63.0 °F - 39.9 °F 43% 29.88 in 10.0 mi WSW 18.4 mph 24.2 mph N/A   Scattered Clouds
5:53 PM 63.0 °F - 39.0 °F 41% 29.88 in 10.0 mi WSW 15.0 mph 24.2 mph N/A   Clear
6:53 PM 57.9 °F - 39.0 °F 49% 29.89 in 10.0 mi WSW 6.9 mph - N/A   Clear
7:53 PM 54.0 °F - 39.9 °F 59% 29.91 in 10.0 mi SW 3.5 mph - N/A   Clear
8:53 PM 52.0 °F - 39.9 °F 63% 29.92 in 10.0 mi WSW 4.6 mph - N/A   Clear
9:53 PM 50.0 °F - 39.9 °F 68% 29.93 in 10.0 mi West 9.2 mph - N/A   Clear
10:53 PM 50.0 °F - 42.1 °F 74% 29.94 in 10.0 mi West 8.1 mph - N/A   Clear
11:53 PM 48.0 °F - 41.0 °F 77% 29.95 in 9.0 mi West 9.2 mph - N/A   Scattered Clouds